Cleveland, OH

4:31 AM EDT on October 19, 2017 (GMT -0400)
Cleveland-Hopkins International

Weather History for KCLE - May, 2013

Change the Weather History Date:

Tuesday, May 14, 2013

  Actual Average Record
Temperature  
Mean Temperature 54 °F 59 °F  
Max Temperature 68 °F 69 °F 91 °F (1962)
Min Temperature 39 °F 49 °F 30 °F (1996)
Degree Days  
Heating Degree Days 11 7  
Month to date heating degree days 76 122  
Since 1 July heating degree days 5691 5633  
Cooling Degree Days 0 1  
Month to date cooling degree days 12 14  
Year to date cooling degree days 14 25  
Growing Degree Days 2 (Base 50)    
Moisture  
Dew Point 33 °F    
Average Humidity 50    
Maximum Humidity 64    
Minimum Humidity 36    
Precipitation  
Precipitation T in 0.12 in 0.96 in (1957)
Month to date precipitation 0.84 1.57  
Year to date precipitation 11.06 13.05  
Snow  
Snow 0.00 in 0.00 in - ()
Month to date snowfall 0.0 0.1  
Since 1 July snowfall 51.7 68.2  
Snow Depth 0.00 in    
Sea Level Pressure  
Sea Level Pressure 30.01 in    
Wind  
Wind Speed 13 mph (SSE)    
Max Wind Speed 22 mph    
Max Gust Speed 30 mph    
Visibility 10 miles    
Events      
T = Trace of Precipitation, MM = Missing Value Source: NWS Daily Summary

Daily Weather History Graph

Daily Weather History Graph

Search for Another Location

Airport or City:

Trip Planner

Search our weather history database for the weather conditions in past years. The results will help you decide how hot, cold, wet, or windy it might be!

Date:

Astronomy

May. 14, 2013 Rise Set
Actual Time 6:09 AM EDT 8:38 PM EDT
Civil Twilight 5:37 AM EDT 9:10 PM EDT
Nautical Twilight 4:58 AM EDT 9:49 PM EDT
Astronomical Twilight 4:15 AM EDT 10:33 PM EDT
Moon 9:47 AM EDT (5/14) No Moon Set
Length of Visible Light 15h 32m
Length of Day
14h 29m
Waxing Crescent, 19% of the Moon is Illuminated
May 14
Waxing Crescent
May 18
First Quarter
May 25
Full
May 31
Last Quarter
Jun 8
New

Hourly Weather History & Observations

Time (EDT) Temp. Windchill Dew Point Humidity Pressure Visibility Wind Dir Wind Speed Gust Speed Precip Events Conditions
12:51 AM 37.9 °F 32.7 °F 27.0 °F 65% 30.19 in 10.0 mi SSE 6.9 mph - N/A   Mostly Cloudy
1:51 AM 39.9 °F 33.9 °F 25.0 °F 55% 30.17 in 10.0 mi SSE 9.2 mph - N/A   Mostly Cloudy
2:51 AM 39.9 °F 33.9 °F 25.0 °F 55% 30.16 in 10.0 mi SSE 9.2 mph - N/A   Overcast
3:51 AM 41.0 °F 34.7 °F 24.1 °F 51% 30.15 in 10.0 mi SSE 10.4 mph - N/A   Overcast
4:51 AM 39.9 °F 34.5 °F 24.1 °F 53% 30.15 in 10.0 mi South 8.1 mph - N/A   Mostly Cloudy
5:51 AM 41.0 °F 35.2 °F 25.0 °F 53% 30.15 in 10.0 mi South 9.2 mph - N/A   Mostly Cloudy
6:51 AM 42.1 °F 36.1 °F 25.0 °F 51% 30.16 in 10.0 mi SSE 10.4 mph - N/A   Overcast
7:51 AM 45.0 °F 39.7 °F 26.1 °F 48% 30.16 in 10.0 mi South 10.4 mph - N/A   Overcast
8:51 AM 46.0 °F 40.6 °F 28.0 °F 50% 30.14 in 10.0 mi South 11.5 mph - N/A   Overcast
9:51 AM 50.0 °F - 30.9 °F 48% 30.09 in 10.0 mi South 13.8 mph - N/A   Overcast
10:51 AM 54.0 °F - 35.1 °F 49% 30.08 in 10.0 mi SSE 9.2 mph - N/A   Mostly Cloudy
11:51 AM 59.0 °F - 35.1 °F 41% 30.05 in 10.0 mi South 12.7 mph 20.7 mph N/A   Mostly Cloudy
12:51 PM 63.0 °F - 36.0 °F 37% 30.00 in 10.0 mi South 13.8 mph - N/A   Mostly Cloudy
1:51 PM 62.6 °F - 35.6 °F 37% 29.97 in 10.0 mi South 17.3 mph 21.9 mph N/A   Overcast
2:51 PM 64.0 °F - 39.0 °F 40% 29.95 in 10.0 mi SSE 19.6 mph 24.2 mph 0.00 in   Mostly Cloudy
3:51 PM 66.0 °F - 39.9 °F 38% 29.90 in 10.0 mi South 20.7 mph 29.9 mph N/A   Scattered Clouds
4:51 PM 66.0 °F - 39.9 °F 38% 29.88 in 10.0 mi South 18.4 mph 24.2 mph N/A   Mostly Cloudy
5:51 PM 66.0 °F - 39.9 °F 38% 29.89 in 10.0 mi South 13.8 mph - N/A   Mostly Cloudy
6:51 PM 66.0 °F - 41.0 °F 40% 29.88 in 10.0 mi South 10.4 mph - N/A   Mostly Cloudy
7:51 PM 64.9 °F - 41.0 °F 42% 29.84 in 10.0 mi SSE 17.3 mph - N/A   Mostly Cloudy
8:51 PM 64.4 °F - 39.2 °F 40% 29.85 in 10.0 mi SE 15.0 mph - N/A   Scattered Clouds
9:51 PM 63.0 °F - 39.0 °F 41% 29.84 in 10.0 mi SSE 13.8 mph - N/A   Scattered Clouds
10:51 PM 61.0 °F - 39.0 °F 44% 29.83 in 10.0 mi SSE 17.3 mph 23.0 mph N/A   Partly Cloudy
11:51 PM 60.1 °F - 39.0 °F 46% 29.81 in 10.0 mi SSE 16.1 mph - N/A   Partly Cloudy